Hourly Weather Roundup
Issued by NWS Central Illinois

Home | Current Version | Previous Version | Text Only | Print | Product List | Glossary On
Versions: 1 2 3 4 5 6 7 8 9 10 11 12 13 14 15 16 17 18 19 20 21 22 23 24 25 26 27 28 29 30 31 32 33 34 35 36 37 38 39 40 41 42 43 44 45 46 47 48 49 50
000
NZUS43 KILX 290410
HWRILX

AREA WEATHER ROUNDUP
NATIONAL WEATHER SERVICE, LINCOLN IL
1100 PM CDT FRI AUG 28 2015


CITY           SKY/WX    TMP DP  RH WIND       PRES   REMARKS
BLOOMINGTON    MOCLDY    67  60  78 SE7       30.06R
CHAMPAIGN      PTCLDY    64  60  87 SE6       30.06S
DANVILLE       MOCLDY    64  61  88 SE6       30.05S
DECATUR        MOCLDY    69  57  65 SE8       30.04F
EFFINGHAM      CLOUDY    66  58  74 E6        30.07R
FLORA          PTCLDY    65  60  85 S3        30.07R
GALESBURG      CLOUDY    68  60  77 SE3       30.02R
JACKSONVILLE   CLOUDY    72  62  72 SE6       30.02S
LACON          CLOUDY    66  61  82 SE7       30.03R
LAWRENCEVILLE  PTCLDY    66  61  84 E5        30.07F
LITCHFIELD     MOCLDY    67  60  77 S6        30.03S
$$


CITY           SKY/WX    TMP DP  RH WIND       PRES   REMARKS
LINCOLN        MOCLDY    68  60  75 CALM      30.04R
MACOMB         CLOUDY    68  62  83 CALM      30.02S
MATTOON        CLOUDY    67  58  72 SE6       30.05S HAZE
MT CARMEL AP   PTCLDY    64  61  88 SE5       30.07S
OLNEY-NOBLE AP MOCLDY    63  59  88 CALM      30.07S
PARIS          MOCLDY    65  61  85 SE5       30.07S
PEORIA         CLOUDY    72  59  63 SE5       30.03R
PONTIAC        MOCLDY    65  63  93 SE5       30.05F
RANTOUL        PTCLDY    66  61  85 SE6       30.06S
ROBINSON       PTCLDY    59  58  94 CALM      30.08S
SPRINGFIELD    MOCLDY    72  61  68 S7        30.03R
TAYLORVILLE    CLOUDY    66  59  77 SE7       30.04R
$$

...REGIONAL REPORTS...


CITY           SKY/WX    TMP DP  RH WIND       PRES   REMARKS
CHICAGO O`HARE CLOUDY    70  63  78 E6        30.07S
KANKAKEE       PTCLDY    66  62  85 CALM      30.08R
MOLINE         LGT RAIN  67  64  90 SE9       30.01S
MOUNT STERLING CLOUDY    68  63  84 SE5       30.00S
MOUNT VERNON   MOCLDY    72  61  68 SE5       30.06S
PITTSFIELD     CLOUDY    70  63  77 CALM      30.02S
QUINCY         CLOUDY    71  63  75 S7        29.99S
ROCKFORD       LGT RAIN  66  61  84 E13       30.08R
$$


CITY           SKY/WX    TMP DP  RH WIND       PRES   REMARKS
BURLINGTON     CLOUDY    70  63  78 SE10      29.98S
CEDAR RAPIDS   LGT RAIN  65  65 100 S9        29.95R FOG
DES MOINES     MOCLDY    71  67  87 SE9       29.90R
KIRKSVILLE     CLOUDY    68  65  90 S6        29.99R
OTTUMWA        CLOUDY    70  66  87 S6        29.93R
ST LOUIS       CLOUDY    76  60  57 SE9       30.01F
$$


CITY           SKY/WX    TMP DP  RH WIND       PRES   REMARKS
TERRE HAUTE    PTCLDY    65  59  81 SE3       30.08S
EVANSVILLE     PTCLDY    70  65  84 NE3       30.08S
INDIANAPOLIS   PTCLDY    66  57  72 SE7       30.09S
LAFAYETTE      MOCLDY    67  58  72 SE5       30.08S
MADISON        LGT RAIN  64  62  93 E10       30.05F
MILWAUKEE      LGT RAIN  61  59  93 E6        30.11S FOG
$$





USA.gov is the U.S. government's official web portal to all federal, state and local government web resources and services.